Starlink 30268

operational
NORAD ID: 57531 Int'l Des: 2023-115 Owner: SPXS Country: US Constellation: starlink
LEOCIRCULAR

About Starlink 30268

Description loading...

Live Position

Loading 3D Globe...

Upcoming Passes

Altitude History

Altitude vs Time

uPlot chart will show altitude changes over time

Two-Line Element Set

1 57531U 23115L 25306.44268618 -.00000131 00000-0 53937-5 0 9996
2 57531 43.0040 336.1297 0001312 274.1459 85.9234 15.02534320123174
Epoch: Nov 2, 2025 • Age: 33 hours

Current Status

Altitude 559.7 km
Velocity 7.58 km/s
Sub-Earth Point -5.06°S, 179.63°W
Launch Date Aug 8, 2023
Age 2.2 years
Type internet

Technical Details

Classification Payload
Mass 730.00 kg
Dry Mass 700.00 kg
Total Mass 730.00 kg
Length 0.30 m
Diameter 4.10 m
Span 29.00 m
Shape Box + pan
Manufacturer SPXS
Bus Type Starlink V2M
Phase Status In Orbit
Owner/State SPXS/US

Large Constellations

Loading constellations...